Location: Chuathbaluk
(61.5726°N, 159.2454°W)
Time: 18:53:48
(UTC+00:00)

Explorer 7 - Pass Details

Date: 02 December 2020
Orbit: 484 x 678 km, 50.3° (Epoch: 14 January)

Event Time Altitude Azimuth Distance (km) Brightness Sun altitude
Exits shadow 16:10:05 11° 197° (SSW) 1,786 9.3 -21.3°
Drops below altitude 10° 16:10:34 10° 190° (S) 1,825 9.4 -21.2°
Sets 16:14:15 0° 155° (SSE) 2,662 10.8 -20.8°
